This is the latest recevied weather packets stored in our database for station/object K3FAZ. If no packets are shown the sender has not sent any weather packets the latest 10 day(s).
| Time | Temp. | Humidity | Pressure | Rain* | Wind** | Luminosity | Snow |
|---|---|---|---|---|---|---|---|
| 1777243488 | 14.44° C | 64% | 1022.5 hPa | 0 mm | - | 43 W/m² | - |
| 1777243183 | 14.44° C | 62% | 1022.6 hPa | 0 mm | - | 45 W/m² | - |
| 1777242879 | 14.44° C | 62% | 1022.5 hPa | 0 mm | - | 47 W/m² | - |
| 1777242577 | 14.44° C | 61% | 1022.5 hPa | 0 mm | - | 55 W/m² | - |
| 1777242272 | 14.44° C | 62% | 1022.6 hPa | 0 mm | - | 56 W/m² | - |
| 1777241970 | 14.44° C | 61% | 1022.5 hPa | 0 mm | - | 53 W/m² | - |
| 1777241667 | 14.44° C | 61% | 1022.4 hPa | 0 mm | - | 61 W/m² | - |
| 1777241364 | 15° C | 62% | 1022.6 hPa | 0 mm | - | 140 W/m² | - |
| 1777241062 | 15° C | 61% | 1022.7 hPa | 0 mm | - | 248 W/m² | - |
| 1777240760 | 15° C | 61% | 1022.4 hPa | 0 mm | - | 266 W/m² | - |
| 1777240457 | 15° C | 62% | 1022.4 hPa | 0 mm | - | 282 W/m² | - |
| 1777240154 | 15° C | 60% | 1022.5 hPa | 0 mm | - | 299 W/m² | - |
| 1777239853 | 15° C | 59% | 1022.3 hPa | 0 mm | - | 319 W/m² | - |
| 1777239549 | 15° C | 62% | 1022.3 hPa | 0 mm | - | 341 W/m² | - |
| 1777239245 | 14.44° C | 62% | 1022.2 hPa | 0 mm | - | 362 W/m² | - |
| 1777238943 | 15° C | 61% | 1022.4 hPa | 0 mm | - | 357 W/m² | - |
| 1777238640 | 15° C | 60% | 1022.3 hPa | 0 mm | - | 372 W/m² | - |
| 1777238336 | 14.44° C | 62% | 1022.2 hPa | 0 mm | - | 395 W/m² | - |
| 1777238033 | 14.44° C | 62% | 1022.2 hPa | 0 mm | - | 413 W/m² | - |
| 1777237730 | 14.44° C | 62% | 1022.3 hPa | 0 mm | - | 433 W/m² | - |
| 1777237427 | 14.44° C | 65% | 1022.1 hPa | 0 mm | - | 402 W/m² | - |
| 1777237124 | 14.44° C | 63% | 1022.3 hPa | 0 mm | - | 444 W/m² | - |
| 1777236822 | 14.44° C | 62% | 1022.3 hPa | 0 mm | - | 488 W/m² | - |
| 1777236521 | 14.44° C | 61% | 1022.1 hPa | 0 mm | - | 521 W/m² | - |
| 1777236218 | 14.44° C | 64% | 1022 hPa | 0 mm | - | 533 W/m² | - |
* Rain latest hour (hover to see other rain measurements)
** Current wind speed in m/s (hover to see current wind gust speed)